| time (UTC) | temp C | wind direction | speed KPH | gust KPH | rain 1hr cm | rain 24hr cm | rain mn cm | humidity % | barometer mb |
| 20260508053323 | 11 | 100 | 17.7 | 0.0 | 0.00 | 0.00 | 0.00 | 94 | 1015.0 |
| 20260508051824 | 11 | 110 | 17.7 | 0.0 | 0.00 | 0.00 | 0.00 | 88 | 1015.0 |
| 20260508050324 | 11 | 110 | 17.7 | 0.0 | 0.00 | 0.00 | 0.00 | 88 | 1015.0 |
| 20260508044823 | 11 | 110 | 16.1 | 0.0 | 0.00 | 0.00 | 0.00 | 82 | 1015.0 |
| 20260508043323 | 11 | 110 | 16.1 | 0.0 | 0.00 | 0.00 | 0.00 | 82 | 1015.0 |
| 20260508041821 | 11 | 110 | 16.1 | 0.0 | 0.00 | 0.00 | 0.00 | 82 | 1015.0 |
| 20260508040324 | 11 | 110 | 16.1 | 0.0 | 0.00 | 0.00 | 0.00 | 82 | 1015.0 |
| 20260508034821 | 10 | 120 | 12.9 | 0.0 | 0.00 | 0.00 | 0.00 | 88 | 1015.0 |
| 20260508033323 | 10 | 120 | 12.9 | 0.0 | 0.00 | 0.00 | 0.00 | 88 | 1015.0 |
| 20260508031823 | 10 | 110 | 12.9 | 0.0 | 0.00 | 0.00 | 0.00 | 88 | 1014.0 |
| 20260508030324 | 10 | 110 | 12.9 | 0.0 | 0.00 | 0.00 | 0.00 | 88 | 1014.0 |
| 20260508024823 | 10 | 110 | 16.1 | 0.0 | 0.00 | 0.00 | 0.00 | 88 | 1014.0 |
| 20260508023324 | 10 | 110 | 16.1 | 0.0 | 0.00 | 0.00 | 0.00 | 88 | 1014.0 |
| 20260508021824 | 10 | 110 | 14.5 | 0.0 | 0.00 | 0.00 | 0.00 | 88 | 1014.0 |
| 20260508020323 | 10 | 110 | 14.5 | 0.0 | 0.00 | 0.00 | 0.00 | 88 | 1014.0 |
| 20260508014823 | 11 | 110 | 14.5 | 0.0 | 0.00 | 0.00 | 0.00 | 82 | 1014.0 |
| 20260508013323 | 11 | 110 | 14.5 | 0.0 | 0.00 | 0.00 | 0.00 | 82 | 1014.0 |
| 20260508011823 | 11 | 110 | 16.1 | 0.0 | 0.00 | 0.00 | 0.00 | 82 | 1014.0 |
| 20260508010323 | 11 | 110 | 16.1 | 0.0 | 0.00 | 0.00 | 0.00 | 82 | 1014.0 |
| 20260508004823 | 11 | 110 | 16.1 | 0.0 | 0.00 | 0.00 | 0.00 | 82 | 1014.0 |
| 20260508003323 | 11 | 110 | 16.1 | 0.0 | 0.00 | 0.00 | 0.00 | 82 | 1014.0 |
| 20260508001822 | 11 | 110 | 16.1 | 0.0 | 0.00 | 0.00 | 0.00 | 82 | 1014.0 |
| 20260508000323 | 11 | 110 | 16.1 | 0.0 | 0.00 | 0.00 | 0.00 | 82 | 1014.0 |
| 20260507234824 | 12 | 110 | 17.7 | 0.0 | 0.00 | 0.00 | 0.00 | 77 | 1014.0 |
| 20260507233323 | 12 | 110 | 17.7 | 0.0 | 0.00 | 0.00 | 0.00 | 77 | 1014.0 |
| 20260507231823 | 12 | 110 | 17.7 | 0.0 | 0.00 | 0.00 | 0.00 | 77 | 1014.0 |
| 20260507230323 | 12 | 110 | 17.7 | 0.0 | 0.00 | 0.00 | 0.00 | 77 | 1014.0 |
| 20260507224823 | 12 | 110 | 20.9 | 0.0 | 0.00 | 0.00 | 0.00 | 77 | 1014.0 |
| 20260507223441 | 12 | 110 | 20.9 | 0.0 | 0.00 | 0.00 | 0.00 | 77 | 1014.0 |
| 20260507221823 | 12 | 120 | 17.7 | 0.0 | 0.00 | 0.00 | 0.00 | 72 | 1014.0 |
| 20260507220323 | 12 | 120 | 17.7 | 0.0 | 0.00 | 0.00 | 0.00 | 72 | 1014.0 |
| 20260507214823 | 12 | 120 | 20.9 | 0.0 | 0.00 | 0.00 | 0.00 | 72 | 1014.0 |
| 20260507213325 | 12 | 120 | 20.9 | 0.0 | 0.00 | 0.00 | 0.00 | 72 | 1014.0 |
| 20260507211823 | 13 | 120 | 20.9 | 0.0 | 0.00 | 0.00 | 0.00 | 67 | 1014.0 |
| 20260507210323 | 13 | 120 | 20.9 | 0.0 | 0.00 | 0.00 | 0.00 | 67 | 1014.0 |
| 20260507204823 | 13 | 120 | 20.9 | 0.0 | 0.00 | 0.00 | 0.00 | 67 | 1014.0 |
| 20260507203323 | 13 | 120 | 20.9 | 0.0 | 0.00 | 0.00 | 0.00 | 67 | 1014.0 |
| 20260507201823 | 16 | 120 | 20.9 | 0.0 | 0.00 | 0.00 | 0.00 | 63 | 1014.0 |
| 20260507200324 | 16 | 120 | 20.9 | 0.0 | 0.00 | 0.00 | 0.00 | 63 | 1014.0 |
| 20260507194829 | 16 | 130 | 25.7 | 0.0 | 0.00 | 0.00 | 0.00 | 63 | 1014.0 |
| 20260507193323 | 16 | 130 | 25.7 | 0.0 | 0.00 | 0.00 | 0.00 | 63 | 1014.0 |
| 20260507191823 | 17 | 120 | 24.1 | 0.0 | 0.00 | 0.00 | 0.00 | 59 | 1014.0 |
| 20260507190324 | 17 | 120 | 24.1 | 0.0 | 0.00 | 0.00 | 0.00 | 59 | 1014.0 |
| 20260507184825 | 17 | 110 | 22.5 | 0.0 | 0.00 | 0.00 | 0.00 | 56 | 1014.0 |
| 20260507183323 | 17 | 110 | 22.5 | 0.0 | 0.00 | 0.00 | 0.00 | 56 | 1014.0 |
| 20260507181823 | 18 | 140 | 20.9 | 0.0 | 0.00 | 0.00 | 0.00 | 56 | 1014.0 |
| 20260507180323 | 18 | 140 | 20.9 | 0.0 | 0.00 | 0.00 | 0.00 | 56 | 1014.0 |
| 20260507174823 | 20 | 140 | 20.9 | 0.0 | 0.00 | 0.00 | 0.00 | 53 | 1014.0 |
| 20260507173324 | 20 | 140 | 20.9 | 0.0 | 0.00 | 0.00 | 0.00 | 53 | 1014.0 |
| 20260507171824 | 21 | 150 | 20.9 | 0.0 | 0.00 | 0.00 | 0.00 | 50 | 1013.0 |
| 20260507170323 | 21 | 150 | 20.9 | 0.0 | 0.00 | 0.00 | 0.00 | 50 | 1013.0 |
| 20260507164824 | 21 | 150 | 22.5 | 0.0 | 0.00 | 0.00 | 0.00 | 46 | 1013.0 |
| 20260507163323 | 21 | 150 | 22.5 | 0.0 | 0.00 | 0.00 | 0.00 | 46 | 1013.0 |
| 20260507161823 | 22 | 150 | 25.7 | 0.0 | 0.00 | 0.00 | 0.00 | 44 | 1013.0 |
| 20260507160323 | 22 | 150 | 25.7 | 0.0 | 0.00 | 0.00 | 0.00 | 44 | 1013.0 |
| 20260507154823 | 22 | 150 | 27.4 | 0.0 | 0.00 | 0.00 | 0.00 | 41 | 1013.0 |
| 20260507153323 | 22 | 150 | 27.4 | 0.0 | 0.00 | 0.00 | 0.00 | 41 | 1013.0 |
| 20260507151823 | 22 | 140 | 27.4 | 0.0 | 0.00 | 0.00 | 0.00 | 38 | 1013.0 |
| 20260507150323 | 22 | 140 | 27.4 | 0.0 | 0.00 | 0.00 | 0.00 | 38 | 1013.0 |
| 20260507144823 | 22 | 150 | 25.7 | 0.0 | 0.00 | 0.00 | 0.00 | 41 | 1014.0 |
| 20260507143325 | 22 | 150 | 25.7 | 0.0 | 0.00 | 0.00 | 0.00 | 41 | 1014.0 |
| 20260507141823 | 23 | 150 | 27.4 | 0.0 | 0.00 | 0.00 | 0.00 | 34 | 1014.0 |
| 20260507140323 | 23 | 150 | 27.4 | 0.0 | 0.00 | 0.00 | 0.00 | 34 | 1014.0 |
| 20260507134824 | 23 | 150 | 25.7 | 0.0 | 0.00 | 0.00 | 0.00 | 34 | 1014.0 |
| 20260507133323 | 23 | 150 | 25.7 | 0.0 | 0.00 | 0.00 | 0.00 | 34 | 1014.0 |
| 20260507131820 | 23 | 150 | 27.4 | 0.0 | 0.00 | 0.00 | 0.00 | 31 | 1014.0 |
| 20260507130323 | 23 | 150 | 27.4 | 0.0 | 0.00 | 0.00 | 0.00 | 31 | 1014.0 |
| 20260507124823 | 23 | 150 | 24.1 | 0.0 | 0.00 | 0.00 | 0.00 | 34 | 1014.0 |
| 20260507123401 | 23 | 150 | 24.1 | 0.0 | 0.00 | 0.00 | 0.00 | 34 | 1014.0 |
| 20260507121823 | 23 | 140 | 27.4 | 0.0 | 0.00 | 0.00 | 0.00 | 34 | 1015.0 |
| 20260507120323 | 23 | 140 | 27.4 | 0.0 | 0.00 | 0.00 | 0.00 | 34 | 1015.0 |
| 20260507114823 | 23 | 160 | 22.5 | 0.0 | 0.00 | 0.00 | 0.00 | 31 | 1015.0 |
| 20260507113340 | 23 | 150 | 25.7 | 0.0 | 0.00 | 0.00 | 0.00 | 31 | 1015.0 |
| 20260507111823 | 23 | 150 | 25.7 | 0.0 | 0.00 | 0.00 | 0.00 | 31 | 1015.0 |
| 20260507110323 | 23 | 150 | 25.7 | 0.0 | 0.00 | 0.00 | 0.00 | 31 | 1015.0 |
| 20260507104822 | 23 | 160 | 20.9 | 0.0 | 0.00 | 0.00 | 0.00 | 31 | 1015.0 |
| 20260507103323 | 23 | 160 | 20.9 | 0.0 | 0.00 | 0.00 | 0.00 | 31 | 1015.0 |
| 20260507101823 | 22 | 160 | 22.5 | 0.0 | 0.00 | 0.00 | 0.00 | 31 | 1015.0 |
| 20260507100324 | 22 | 160 | 22.5 | 0.0 | 0.00 | 0.00 | 0.00 | 31 | 1015.0 |
| 20260507094823 | 22 | 170 | 16.1 | 0.0 | 0.00 | 0.00 | 0.00 | 31 | 1015.0 |
| 20260507093324 | 22 | 170 | 16.1 | 0.0 | 0.00 | 0.00 | 0.00 | 31 | 1015.0 |
| 20260507091824 | 22 | 150 | 22.5 | 0.0 | 0.00 | 0.00 | 0.00 | 31 | 1015.0 |
| 20260507090323 | 22 | 150 | 22.5 | 0.0 | 0.00 | 0.00 | 0.00 | 31 | 1015.0 |
| 20260507084823 | 22 | 150 | 17.7 | 0.0 | 0.00 | 0.00 | 0.00 | 33 | 1015.0 |
| 20260507083323 | 22 | 150 | 17.7 | 0.0 | 0.00 | 0.00 | 0.00 | 33 | 1015.0 |
| 20260507081823 | 22 | 160 | 16.1 | 0.0 | 0.00 | 0.00 | 0.00 | 33 | 1016.0 |
| 20260507080324 | 22 | 160 | 16.1 | 0.0 | 0.00 | 0.00 | 0.00 | 33 | 1016.0 |
| 20260507074824 | 21 | 150 | 17.7 | 0.0 | 0.00 | 0.00 | 0.00 | 35 | 1016.0 |
| 20260507073323 | 21 | 150 | 17.7 | 0.0 | 0.00 | 0.00 | 0.00 | 35 | 1016.0 |
| 20260507071823 | 18 | 130 | 16.1 | 0.0 | 0.00 | 0.00 | 0.00 | 46 | 1016.0 |
| 20260507070323 | 18 | 130 | 16.1 | 0.0 | 0.00 | 0.00 | 0.00 | 46 | 1016.0 |
| 20260507064823 | 17 | 120 | 17.7 | 0.0 | 0.00 | 0.00 | 0.00 | 52 | 1016.0 |
| 20260507063323 | 17 | 120 | 17.7 | 0.0 | 0.00 | 0.00 | 0.00 | 52 | 1016.0 |
| 20260507061832 | 16 | 100 | 20.9 | 0.0 | 0.00 | 0.00 | 0.00 | 55 | 1016.0 |
| 20260507060323 | 16 | 100 | 20.9 | 0.0 | 0.00 | 0.00 | 0.00 | 55 | 1016.0 |
| 20260507054823 | 15 | 110 | 20.9 | 0.0 | 0.00 | 0.00 | 0.00 | 59 | 1016.0 |